Terug naar catalogus

NSTAR A

ActiefCommunicatieGEO
NORAD 23651·PAYLOAD·🇯🇵 Japan

Gelanceerd Aug 29, 1995 vanaf Guiana Space Centre

Loading…

TLE

VersSource: Space-Track

Epoch: Sep 14, 2026, 12:29 UTC

1 23651U 95044A   26257.52026868 -.00000079  00000-0  00000-0 0  9995
2 23651  13.3136  20.6468 0017585  15.5208 339.2033  0.99130284112798

Volg NSTAR A in realtime met AllMySat

Download on the App Store